Anula, Australia

6:35 PM ACST on May 26, 2018 (GMT +0930)
Anula

Weather History for 94120 - July, 2013

Change the Weather History Date:

Saturday, July 20, 2013

  Actual Average Record
Temperature  
Mean Temperature 77 °F -  
Max Temperature 87 °F 88 °F - ()
Min Temperature 67 °F 68 °F - ()
Cooling Degree Days 12    
Growing Degree Days 27 (Base 50)    
Moisture  
Dew Point 66 °F    
Average Humidity 69    
Maximum Humidity 100    
Minimum Humidity 33    
Precipitation  
Precipitation 0.00 in 0.01 in - ()
Sea Level Pressure  
Sea Level Pressure 29.84 in    
Wind  
Wind Speed 7 mph ()    
Max Wind Speed 14 mph    
Max Gust Speed -    
Visibility 9.9 miles    
Events Fog    
T = Trace of Precipitation, MM = Missing Value Source: Averaged Metar Reports

Daily Weather History Graph

Daily Weather History Graph

Search for Another Location

Airport or City:

Astronomy

Jul. 20, 2013 Rise Set
Actual Time 7:08 AM ACST 6:37 PM ACST
Civil Twilight 6:45 AM ACST 7:00 PM ACST
Nautical Twilight 6:19 AM ACST 7:26 PM ACST
Astronomical Twilight 5:53 AM ACST 7:52 PM ACST
Moon 4:04 PM ACST (7/20) 4:10 AM ACST (7/20)
Length of Visible Light 12h 14m
Length of Day
11h 29m
Waxing Gibbous, 90% of the Moon is Illuminated
Jul 20
Waxing Gibbous
Jul 23
Full
Jul 30
Last Quarter
Aug 7
New
Aug 14
First Quarter

Hourly Weather History & Observations

Time (ACST) Temp. Heat Index Dew Point Humidity Pressure Visibility Wind Dir Wind Speed Gust Speed Precip Events Conditions
12:00 AM 74 °F - 71 °F 88% 29.89 in 19 mi SSW 6.9 mph - -   Partly Cloudy
12:00 AM 75.2 °F - 71.6 °F 89% 29.89 in - SSW 6.9 mph - N/A   Clear
12:30 AM 74 °F - 71 °F 88% 29.89 in - SSW 6.9 mph - -  
12:30 AM 75.2 °F - 71.6 °F 89% 29.89 in - SSW 6.9 mph - N/A   Clear
1:00 AM 75.2 °F - 69.8 °F 83% 29.89 in - SSW 8.1 mph - N/A   Clear
1:30 AM 73.4 °F - 69.8 °F 88% 29.89 in - South 5.8 mph - N/A   Clear
2:00 AM 73.4 °F - 69.8 °F 88% 29.86 in - SSW 8.1 mph - N/A   Clear
2:30 AM 73.4 °F - 69.8 °F 88% 29.86 in - SW 8.1 mph - N/A   Clear
3:00 AM 71 °F - 68 °F 86% 29.87 in 19 mi SSW 3.5 mph - -   Partly Cloudy
3:00 AM 71.6 °F - 68.0 °F 88% 29.86 in - SSW 3.5 mph - N/A   Clear
3:30 AM 70 °F - 68 °F 90% 29.86 in - West 2.3 mph - -  
3:30 AM 69.8 °F - 68.0 °F 94% 29.86 in - West 2.3 mph - N/A   Clear
4:00 AM 69.8 °F - 68.0 °F 94% 29.86 in - ENE 8.1 mph - N/A   Clear
4:30 AM 69.8 °F - 68.0 °F 94% 29.86 in - NE 5.8 mph - N/A   Clear
5:00 AM 69.8 °F - 68.0 °F 94% 29.86 in - NE 5.8 mph - N/A   Clear
5:30 AM 69.8 °F - 68.0 °F 94% 29.86 in - ENE 4.6 mph - N/A   Clear
6:00 AM 68 °F - 67 °F 94% 29.86 in 12 mi NE 4.6 mph - -   Partly Cloudy
6:00 AM 68.0 °F - 66.2 °F 94% 29.86 in - NE 4.6 mph - N/A   Clear
6:30 AM 69 °F - 67 °F 93% 29.86 in - NE 4.6 mph - -  
6:30 AM 69.8 °F - 68.0 °F 94% 29.86 in - NE 4.6 mph - N/A   Clear
6:44 AM 68.0 °F - 66.2 °F 94% 29.86 in 6.2 mi ENE 3.5 mph - N/A Fog Patches of Fog
7:00 AM 68.0 °F - 66.2 °F 94% 29.86 in 6.2 mi ENE 3.5 mph - N/A Fog Patches of Fog
7:30 AM 68.0 °F - 68.0 °F 100% 29.89 in 6.2 mi ENE 6.9 mph - N/A   Partly Cloudy
8:00 AM 71.6 °F - 71.6 °F 100% 29.89 in 6.2 mi ENE 5.8 mph - N/A   Partly Cloudy
8:30 AM 75.2 °F - 71.6 °F 89% 29.89 in 6.2 mi ENE 5.8 mph - N/A   Partly Cloudy
9:00 AM 78 °F - 72 °F 78% 29.91 in 19 mi NNE 5.8 mph - -   Partly Cloudy
9:00 AM 77.0 °F - 73.4 °F 89% 29.89 in 6.2 mi NNE 5.8 mph - N/A   Partly Cloudy
9:30 AM 80 °F - 68 °F 60% 29.91 in - NNE 6.9 mph - -  
9:30 AM 80.6 °F 83.2 °F 68.0 °F 65% 29.89 in 6.2 mi NNE 6.9 mph - N/A   Partly Cloudy
10:00 AM 82.4 °F 84.6 °F 66.2 °F 58% 29.89 in 6.2 mi NNE 6.9 mph - N/A   Partly Cloudy
10:30 AM 84.2 °F 85.0 °F 62.6 °F 48% 29.89 in 6.2 mi NNE 10.4 mph - N/A   Partly Cloudy
11:00 AM 84.2 °F 85.0 °F 62.6 °F 48% 29.89 in 6.2 mi NNE 8.1 mph - N/A   Partly Cloudy
11:30 AM 84.2 °F 84.4 °F 60.8 °F 45% 29.86 in 6.2 mi NNE 9.2 mph - N/A   Partly Cloudy
12:00 PM 86 °F - 62 °F 35% 29.86 in 19 mi North 8.1 mph - -   Partly Cloudy
12:00 PM 86.0 °F 86.6 °F 62.6 °F 45% 29.86 in 6.2 mi North 8.1 mph - N/A   Partly Cloudy
12:30 PM 87 °F - 62 °F 34% 29.85 in - NNW 12.7 mph - -  
12:30 PM 87.8 °F 88.5 °F 62.6 °F 43% 29.83 in 6.2 mi NNW 12.7 mph - N/A   Partly Cloudy
1:00 PM 87.8 °F 88.5 °F 62.6 °F 43% 29.83 in 6.2 mi NNW 12.7 mph - N/A   Partly Cloudy
1:30 PM 86.0 °F 86.6 °F 62.6 °F 45% 29.80 in 6.2 mi NNW 13.8 mph - N/A   Partly Cloudy
2:00 PM 86.0 °F 86.6 °F 62.6 °F 45% 29.80 in 6.2 mi NNW 11.5 mph - N/A   Partly Cloudy
2:30 PM 86.0 °F 86.6 °F 62.6 °F 45% 29.77 in 6.2 mi NW 11.5 mph - N/A   Partly Cloudy
3:00 PM 85 °F - 60 °F 33% 29.76 in 19 mi NW 12.7 mph - -   Partly Cloudy
3:00 PM 86.0 °F 86.1 °F 60.8 °F 43% 29.77 in 6.2 mi NW 12.7 mph - N/A   Partly Cloudy
3:30 PM 85 °F - 60 °F 33% 29.76 in - NW 12.7 mph - -  
3:30 PM 84.2 °F 84.4 °F 60.8 °F 45% 29.74 in - NW 12.7 mph - N/A   Clear
4:00 PM 86.0 °F 85.4 °F 59.0 °F 40% 29.74 in - NW 11.5 mph - N/A   Clear
4:30 PM 84.2 °F 84.4 °F 60.8 °F 45% 29.74 in - North 10.4 mph - N/A   Clear
5:00 PM 84.2 °F 84.4 °F 60.8 °F 45% 29.74 in - North 12.7 mph - N/A   Clear
5:30 PM 84.2 °F 85.6 °F 64.4 °F 51% 29.77 in - North 13.8 mph - N/A   Clear
6:00 PM 82 °F - 64 °F 45% 29.77 in 19 mi North 13.8 mph - -   Partly Cloudy
6:00 PM 82.4 °F 83.9 °F 64.4 °F 54% 29.77 in - North 13.8 mph - N/A   Clear
6:30 PM 80 °F - 66 °F 53% 29.78 in - North 10.4 mph - -  
6:30 PM 80.6 °F 82.7 °F 66.2 °F 61% 29.77 in - North 10.4 mph - N/A   Clear
7:00 PM 78.8 °F - 68.0 °F 69% 29.77 in - North 9.2 mph - N/A   Clear
7:30 PM 78.8 °F - 62.6 °F 57% 29.80 in - NNW 5.8 mph - N/A   Clear
8:00 PM 77.0 °F - 64.4 °F 65% 29.83 in - NNW 4.6 mph - N/A   Clear
8:30 PM 75.2 °F - 66.2 °F 73% 29.83 in - NNW 4.6 mph - N/A   Clear
9:00 PM 76 °F - 67 °F 65% 29.85 in 19 mi West 5.8 mph - -   Partly Cloudy
9:00 PM 77.0 °F - 66.2 °F 69% 29.83 in - West 5.8 mph - N/A   Clear
9:30 PM 74 °F - 65 °F 67% 29.85 in - West 5.8 mph - -  
9:30 PM 73.4 °F - 64.4 °F 73% 29.83 in - West 5.8 mph - N/A   Clear
10:00 PM 75.2 °F - 66.2 °F 73% 29.86 in - West 5.8 mph - N/A   Clear
10:30 PM 77.0 °F - 68.0 °F 74% 29.86 in - SSW 5.8 mph - N/A   Clear
11:00 PM 75.2 °F - 69.8 °F 83% 29.86 in - SW 8.1 mph - N/A   Clear
11:30 PM 73.4 °F - 68.0 °F 83% 29.86 in - SW 5.8 mph - N/A   Clear